Find Hammer

NORAD ID: 59148 Int'l Des: 2024-043 Owner: OCOS Country: UK operational
LEOCIRCULARRETROGRADE

实时位置

正在加载3D地球...

关于 Hammer

正在加载描述...

即将过境

Passes for default location (London). Set your location on the main map for personalized predictions.

高度历史

Loading altitude history...

两行轨道根数

1 59148U 24043BC 26106.96396355 .00010888 00000-0 21421-3 0 9999
2 59148 97.5380 253.0043 0007260 49.2669 310.9210 15.47419510118338
Epoch: Apr 16, 2026 • Age: 12 hours

当前状态

高度 442.8 km
速度 7.64 km/s
星下点 -46.89°S, 114.2°W
发射日期 Mar 4, 2024
运行时间 2.1 years
类型 other

技术详情

分类 Payload
质量 10.00 kg
干质量 10.00 kg
总质量 10.00 kg
长度 0.30 m
直径 0.20 m
跨度 0.50 m
形状 Box + 2 pan
制造商 OCOS
平台类型 Cubesat 6U
阶段状态 In Orbit
所有者/国家 OCOS/UK

Most Searched